DW7857 Weather Reports


Display with metric or nautical units.
time (UTC)temp
F
wind
direction
speed
MPH
gust
MPH
rain 1hr
in
rain 24hr
in
rain mn
in
humidity
%
barometer
mb
20191023073016 38 49 2.0 2.0 0.00 0.00 0.00 96 1020.6
20191023072015 38 11 0.0 1.0 0.00 0.00 0.00 96 1021.1
20191023071015 38 311 0.0 1.0 0.00 0.00 0.00 96 1021.0
20191023070014 38 33 1.0 1.0 0.00 0.00 0.00 96 1021.4
20191023065015 38 73 1.0 2.0 0.00 0.00 0.00 96 1021.1
20191023064015 38 51 1.0 2.0 0.00 0.00 0.00 96 1021.2
20191023063014 39 1 0.0 1.0 0.00 0.00 0.00 96 1020.9
20191023062015 39 0 0.0 0.0 0.00 0.00 0.00 96 1021.4
20191023061015 39 0 0.0 0.0 0.00 0.00 0.00 96 1021.3
20191023060015 40 196 0.0 2.0 0.00 0.00 0.00 96 1021.4
20191023055015 39 0 0.0 0.0 0.00 0.00 0.00 96 1021.5
20191023054014 40 0 0.0 0.0 0.00 0.00 0.00 96 1021.7
20191023053014 40 90 0.0 1.0 0.00 0.00 0.00 96 1022.0
20191023052014 40 0 0.0 0.0 0.00 0.00 0.00 96 1022.4
20191023051024 40 270 0.0 2.0 0.00 0.00 0.00 96 1022.1
20191023050024 40 0 0.0 0.0 0.00 0.00 0.00 96 1022.4
20191023045024 40 0 0.0 0.0 0.00 0.00 0.00 96 1022.1
20191023044023 40 0 0.0 0.0 0.00 0.00 0.00 96 1022.2
20191023043024 40 0 0.0 0.0 0.00 0.00 0.00 97 1022.3
20191023042024 41 0 0.0 0.0 0.00 0.00 0.00 97 1022.1
20191023041023 40 0 0.0 0.0 0.00 0.00 0.00 97 1022.0
20191023040024 40 31 0.0 1.0 0.00 0.00 0.00 96 1022.4
20191023035028 40 282 0.0 1.0 0.00 0.00 0.00 96 1022.5
20191023034255 40 1 0.0 1.0 0.00 0.00 0.00 96 1022.5
20191023032024 39 0 0.0 0.0 0.00 0.00 0.00 96 1022.9
20191023031023 39 200 0.0 1.0 0.00 0.00 0.00 96 1022.9
20191023030024 39 148 1.0 2.0 0.00 0.00 0.00 96 1023.1
20191023025023 39 0 0.0 0.0 0.00 0.00 0.00 96 1023.3
20191023024024 40 27 0.0 1.0 0.00 0.00 0.00 96 1023.5
20191023023024 40 270 1.0 2.0 0.00 0.00 0.00 96 1023.5
20191023022023 40 211 1.0 2.0 0.00 0.00 0.00 96 1023.8
20191023021024 40 253 1.0 2.0 0.00 0.00 0.00 96 1023.8
20191023020024 40 179 1.0 3.0 0.00 0.00 0.00 96 1024.4
20191023015023 40 186 1.0 3.0 0.00 0.00 0.00 96 1024.2
20191023014023 40 187 2.0 4.0 0.00 0.00 0.00 96 1024.4
20191023013024 40 177 0.0 1.0 0.00 0.00 0.00 96 1024.4
20191023012024 40 181 0.0 1.0 0.00 0.00 0.00 96 1024.4
20191023011023 40 0 0.0 0.0 0.00 0.00 0.00 96 1024.7
20191023010024 40 0 0.0 0.0 0.00 0.00 0.00 96 1024.7
20191023005023 40 0 0.0 0.0 0.00 0.00 0.00 96 1024.4
20191023004024 40 0 0.0 0.0 0.00 0.00 0.00 96 1024.5
20191023003024 40 0 0.0 0.0 0.00 0.00 0.00 96 1025.0
20191023002023 40 0 0.0 0.0 0.00 0.00 0.00 96 1024.9
20191023001023 40 225 0.0 1.0 0.00 0.00 0.00 96 1025.0
20191023000032 40 225 0.0 1.0 0.00 0.00 0.00 96 1025.4
20191022235025 40 0 0.0 0.0 0.00 0.00 0.00 96 1025.3
20191022234024 41 0 0.0 0.0 0.00 0.00 0.00 96 1025.7
20191022233025 41 302 0.0 1.0 0.00 0.00 0.00 96 1026.0
20191022232024 42 181 1.0 2.0 0.00 0.00 0.00 97 1026.0
20191022231024 43 184 2.0 3.0 0.00 0.00 0.00 97 1025.9
20191022230025 43 190 1.0 3.0 0.00 0.00 0.00 97 1026.3
20191022225024 43 215 0.0 1.0 0.00 0.00 0.00 97 1026.1
20191022224024 44 186 1.0 2.0 0.00 0.00 0.00 97 1026.1
20191022223024 44 187 3.0 4.0 0.00 0.00 0.00 97 1026.1
20191022222024 44 183 3.0 4.0 0.00 0.00 0.00 97 1026.2
20191022221024 44 177 3.0 4.0 0.00 0.00 0.00 96 1026.5
20191022220025 44 176 2.0 3.0 0.00 0.00 0.00 96 1026.3
20191022215024 43 182 1.0 2.0 0.00 0.00 0.00 95 1026.5
20191022214025 42 0 0.0 0.0 0.00 0.00 0.00 95 1026.5
20191022213025 43 0 0.0 0.0 0.00 0.00 0.00 95 1026.6
20191022212024 44 0 0.0 0.0 0.00 0.00 0.00 96 1026.8
20191022211025 45 181 1.0 2.0 0.00 0.00 0.00 96 1026.6
20191022210024 45 184 2.0 2.0 0.00 0.00 0.00 96 1027.0
20191022205025 45 181 1.0 2.0 0.00 0.00 0.00 96 1026.9
20191022204024 45 175 1.0 2.0 0.00 0.00 0.00 95 1027.1
20191022203024 44 0 0.0 0.0 0.00 0.00 0.00 94 1026.7
20191022202024 45 135 0.0 1.0 0.00 0.00 0.00 94 1026.6
20191022201024 45 181 0.0 1.0 0.00 0.00 0.00 94 1026.6
20191022200024 45 219 0.0 1.0 0.00 0.00 0.00 94 1026.7
20191022195025 45 270 0.0 1.0 0.00 0.00 0.00 94 1026.7
20191022194024 46 0 0.0 0.0 0.00 0.00 0.00 91 1026.9
20191022193025 47 156 0.0 1.0 0.00 0.00 0.00 91 1026.7
20191022192024 47 181 1.0 2.0 0.00 0.00 0.00 91 1026.9
20191022191025 47 181 1.0 2.0 0.00 0.00 0.00 91 1026.8
20191022190025 48 181 1.0 2.0 0.00 0.00 0.00 91 1027.0
20191022185024 48 181 1.0 2.0 0.00 0.00 0.00 90 1027.0
20191022184025 48 181 0.0 1.0 0.00 0.00 0.00 90 1027.0
20191022183025 48 0 0.0 0.0 0.00 0.00 0.00 89 1027.1
20191022182024 48 181 0.0 1.0 0.00 0.00 0.00 88 1027.0
20191022181024 48 270 0.0 1.0 0.00 0.00 0.00 87 1027.1
20191022180025 49 270 0.0 1.0 0.00 0.00 0.00 85 1027.2
20191022175024 49 129 0.0 1.0 0.00 0.00 0.00 84 1027.5
20191022174024 49 135 0.0 1.0 0.00 0.00 0.00 83 1027.3
20191022173025 50 0 0.0 0.0 0.00 0.00 0.00 82 1027.1
20191022172025 51 181 0.0 1.0 0.00 0.00 0.00 82 1027.3
20191022171025 51 191 0.0 1.0 0.00 0.00 0.00 81 1027.2
20191022170025 52 0 0.0 0.0 0.00 0.00 0.00 79 1027.1
20191022165024 53 270 0.0 1.0 0.00 0.00 0.00 76 1027.1
20191022164024 54 0 0.0 0.0 0.00 0.00 0.00 74 1027.1
20191022163025 55 197 1.0 2.0 0.00 0.00 0.00 71 1027.1
20191022162024 56 197 2.0 4.0 0.00 0.00 0.00 71 1027.3
20191022161024 56 202 3.0 4.0 0.00 0.00 0.00 69 1027.3
20191022160025 59 169 3.0 5.0 0.00 0.00 0.00 65 1027.3
20191022155025 59 196 3.0 4.0 0.00 0.00 0.00 67 1027.2
20191022154024 57 209 2.0 3.0 0.00 0.00 0.00 70 1027.4
20191022153024 57 209 2.0 3.0 0.00 0.00 0.00 69 1027.6
20191022152024 57 173 2.0 3.0 0.00 0.00 0.00 67 1027.8
20191022151024 59 191 2.0 3.0 0.00 0.00 0.00 64 1027.8
20191022150025 61 189 2.0 4.0 0.00 0.00 0.00 61 1027.7
20191022145024 62 152 3.0 5.0 0.00 0.00 0.00 60 1028.0
20191022144024 62 163 2.0 4.0 0.00 0.00 0.00 62 1028.0
20191022143025 62 162 3.0 4.0 0.00 0.00 0.00 61 1028.0
20191022142024 62 138 3.0 4.0 0.00 0.00 0.00 60 1027.9
20191022141025 62 150 3.0 6.0 0.00 0.00 0.00 62 1028.2
20191022140025 62 184 3.0 4.0 0.00 0.00 0.00 61 1028.2
20191022135024 62 164 4.0 7.0 0.00 0.00 0.00 61 1027.9
20191022134024 63 196 2.0 3.0 0.00 0.00 0.00 63 1028.5
20191022133025 60 188 2.0 3.0 0.00 0.00 0.00 66 1028.5
20191022132024 59 178 2.0 3.0 0.00 0.00 0.00 74 1028.6
20191022131024 56 213 3.0 3.0 0.00 0.00 0.00 75 1028.7
20191022130027 56 192 1.0 2.0 0.00 0.00 0.00 76 1028.7
20191022125024 55 214 1.0 3.0 0.00 0.00 0.00 76 1028.6
20191022124025 55 202 0.0 1.0 0.00 0.00 0.00 77 1029.0
20191022123025 54 193 1.0 2.0 0.00 0.00 0.00 76 1029.0
20191022122024 54 220 2.0 3.0 0.00 0.00 0.00 76 1029.1
20191022121024 55 186 2.0 2.0 0.00 0.00 0.00 76 1029.3
20191022120025 55 194 2.0 4.0 0.00 0.00 0.00 75 1029.3
20191022115024 55 181 2.0 4.0 0.00 0.00 0.00 75 1029.6
20191022114024 55 188 3.0 3.0 0.00 0.00 0.00 75 1029.4
20191022113025 55 196 2.0 3.0 0.00 0.00 0.00 75 1029.6
20191022112024 55 186 2.0 3.0 0.00 0.00 0.00 75 1029.9
20191022111024 55 192 1.0 2.0 0.00 0.00 0.00 75 1029.7
20191022110025 54 149 1.0 2.0 0.00 0.00 0.00 75 1029.8
20191022105024 54 111 1.0 2.0 0.00 0.00 0.00 75 1029.7
20191022104024 55 90 1.0 2.0 0.00 0.00 0.00 75 1029.6
20191022103025 55 154 0.0 1.0 0.00 0.00 0.00 76 1029.7
20191022102024 54 191 1.0 2.0 0.00 0.00 0.00 80 1029.5
20191022101025 53 181 2.0 2.0 0.00 0.00 0.00 79 1029.9
20191022100024 53 181 2.0 3.0 0.00 0.00 0.00 80 1029.5
20191022095024 53 165 1.0 2.0 0.00 0.00 0.00 80 1029.8
20191022094025 54 147 1.0 2.0 0.00 0.00 0.00 78 1029.7
20191022093025 55 92 1.0 2.0 0.00 0.00 0.00 76 1029.7
20191022092025 55 175 1.0 2.0 0.00 0.00 0.00 89 1029.8
20191022091024 51 178 2.0 3.0 0.00 0.00 0.00 96 1029.5
20191022090025 50 260 0.0 2.0 0.00 0.00 0.00 97 1029.6
20191022085025 46 178 0.0 2.0 0.00 0.00 0.00 95 1029.8
20191022084025 45 165 1.0 2.0 0.00 0.00 0.00 99 1029.8
20191022083025 44 192 1.0 3.0 0.00 0.00 0.00 100 1029.7
20191022082024 43 188 3.0 4.0 0.00 0.00 0.00 97 1029.6
20191022081025 41 196 3.0 4.0 0.00 0.00 0.00 97 1029.8
20191022080025 41 196 3.0 4.0 0.00 0.00 0.00 96 1029.8
20191022075024 40 171 2.0 4.0 0.00 0.00 0.00 96 1029.8
20191022074024 40 162 0.0 2.0 0.00 0.00 0.00 96 1029.5